| time (UTC) | temp C | wind direction | speed KPH | gust KPH | rain 1hr cm | rain 24hr cm | rain mn cm | humidity % | barometer mb |
| 20260505140616 | 4 | 356 | 6.4 | 9.7 | 0.00 | 0.00 | 0.00 | 64 | 1020.1 |
| 20260505140113 | 3 | 340 | 11.3 | 12.9 | 0.00 | 0.00 | 0.00 | 67 | 1020.3 |
| 20260505125030 | 1 | 330 | 9.7 | 11.3 | 0.00 | 0.00 | 0.00 | 77 | 1019.5 |
| 20260505124526 | 1 | 348 | 11.3 | 11.3 | 0.00 | 0.00 | 0.00 | 77 | 1019.3 |
| 20260505124022 | 1 | 350 | 11.3 | 12.9 | 0.00 | 0.00 | 0.00 | 77 | 1019.3 |
| 20260505123519 | 0 | 341 | 11.3 | 12.9 | 0.00 | 0.00 | 0.00 | 78 | 1019.2 |
| 20260505123015 | 0 | 16 | 9.7 | 11.3 | 0.00 | 0.00 | 0.00 | 78 | 1019.2 |
| 20260505122513 | 0 | 10 | 9.7 | 11.3 | 0.00 | 0.00 | 0.00 | 78 | 1019.2 |
| 20260505122009 | 0 | 357 | 9.7 | 11.3 | 0.00 | 0.00 | 0.00 | 79 | 1019.2 |
| 20260505121506 | 0 | 350 | 8.0 | 11.3 | 0.00 | 0.00 | 0.00 | 79 | 1019.3 |
| 20260505121002 | 0 | 4 | 8.0 | 9.7 | 0.00 | 0.00 | 0.00 | 79 | 1019.3 |
| 20260505120459 | 0 | 6 | 6.4 | 6.4 | 0.00 | 0.00 | 0.00 | 78 | 1019.2 |
| 20260505115958 | 0 | 358 | 4.8 | 6.4 | 0.00 | 0.00 | 0.00 | 77 | 1019.3 |
| 20260505115454 | 0 | 359 | 6.4 | 9.7 | 0.00 | 0.00 | 0.00 | 77 | 1019.2 |
| 20260505114952 | 0 | 12 | 6.4 | 9.7 | 0.00 | 0.00 | 0.00 | 77 | 1019.1 |
| 20260505114448 | 0 | 1 | 8.0 | 11.3 | 0.00 | 0.00 | 0.00 | 76 | 1018.7 |
| 20260505113945 | 1 | 351 | 9.7 | 11.3 | 0.00 | 0.00 | 0.00 | 75 | 1019.1 |
| 20260505113441 | 1 | 334 | 6.4 | 6.4 | 0.00 | 0.00 | 0.00 | 75 | 1019.1 |
| 20260505112937 | 1 | 347 | 6.4 | 9.7 | 0.00 | 0.00 | 0.00 | 73 | 1019.1 |
| 20260505112435 | 1 | 9 | 8.0 | 9.7 | 0.00 | 0.00 | 0.00 | 72 | 1019.2 |
| 20260505111931 | 1 | 2 | 9.7 | 12.9 | 0.00 | 0.00 | 0.00 | 71 | 1019.0 |
| 20260505111426 | 1 | 351 | 9.7 | 9.7 | 0.00 | 0.00 | 0.00 | 70 | 1019.0 |
| 20260505110922 | 2 | 0 | 9.7 | 12.9 | 0.00 | 0.00 | 0.00 | 70 | 1018.7 |
| 20260505110419 | 2 | 3 | 12.9 | 14.5 | 0.00 | 0.00 | 0.00 | 69 | 1018.8 |
| 20260505101850 | 3 | 5 | 14.5 | 17.7 | 0.00 | 0.00 | 0.00 | 60 | 1019.0 |
| 20260505101345 | 3 | 345 | 12.9 | 16.1 | 0.00 | 0.00 | 0.00 | 60 | 1018.7 |
| 20260505100841 | 3 | 4 | 11.3 | 14.5 | 0.00 | 0.00 | 0.00 | 58 | 1018.7 |
| 20260505100338 | 3 | 9 | 8.0 | 11.3 | 0.00 | 0.00 | 0.00 | 58 | 1018.5 |
| 20260505095833 | 3 | 3 | 8.0 | 11.3 | 0.00 | 0.00 | 0.00 | 58 | 1018.8 |
| 20260505095331 | 3 | 357 | 14.5 | 16.1 | 0.00 | 0.00 | 0.00 | 58 | 1018.6 |
| 20260505094827 | 3 | 341 | 12.9 | 14.5 | 0.00 | 0.00 | 0.00 | 59 | 1018.4 |
| 20260505094324 | 3 | 6 | 9.7 | 12.9 | 0.00 | 0.00 | 0.00 | 59 | 1018.6 |
| 20260505093819 | 3 | 348 | 8.0 | 11.3 | 0.00 | 0.00 | 0.00 | 58 | 1018.5 |
| 20260505093318 | 3 | 334 | 9.7 | 12.9 | 0.00 | 0.00 | 0.00 | 58 | 1018.3 |
| 20260505092814 | 3 | 4 | 12.9 | 16.1 | 0.00 | 0.00 | 0.00 | 58 | 1018.6 |
| 20260505092313 | 3 | 23 | 12.9 | 16.1 | 0.00 | 0.00 | 0.00 | 57 | 1018.6 |
| 20260505091810 | 3 | 33 | 6.4 | 11.3 | 0.00 | 0.00 | 0.00 | 56 | 1018.3 |
| 20260505091308 | 3 | 2 | 11.3 | 14.5 | 0.00 | 0.00 | 0.00 | 55 | 1018.6 |
| 20260505090805 | 3 | 358 | 6.4 | 9.7 | 0.00 | 0.00 | 0.00 | 55 | 1018.5 |
| 20260505090303 | 3 | 19 | 6.4 | 6.4 | 0.00 | 0.00 | 0.00 | 55 | 1018.2 |
| 20260505085800 | 3 | 11 | 6.4 | 6.4 | 0.00 | 0.00 | 0.00 | 56 | 1018.4 |
| 20260505085258 | 3 | 14 | 3.2 | 3.2 | 0.00 | 0.00 | 0.00 | 57 | 1018.3 |
| 20260505084756 | 3 | 349 | 3.2 | 3.2 | 0.00 | 0.00 | 0.00 | 57 | 1018.3 |
| 20260505084255 | 3 | 336 | 4.8 | 4.8 | 0.00 | 0.00 | 0.00 | 56 | 1018.4 |
| 20260505083751 | 3 | 340 | 6.4 | 6.4 | 0.00 | 0.00 | 0.00 | 56 | 1018.3 |
| 20260505083248 | 3 | 328 | 3.2 | 4.8 | 0.00 | 0.00 | 0.00 | 55 | 1018.2 |
| 20260505082744 | 3 | 342 | 4.8 | 4.8 | 0.00 | 0.00 | 0.00 | 56 | 1018.3 |
| 20260505082241 | 4 | 1 | 6.4 | 6.4 | 0.00 | 0.00 | 0.00 | 55 | 1018.3 |
| 20260505081737 | 4 | 8 | 6.4 | 9.7 | 0.00 | 0.00 | 0.00 | 55 | 1018.4 |
| 20260505081235 | 3 | 359 | 6.4 | 6.4 | 0.00 | 0.00 | 0.00 | 55 | 1018.2 |
| 20260505080731 | 3 | 11 | 4.8 | 4.8 | 0.00 | 0.00 | 0.00 | 55 | 1018.3 |
| 20260505080226 | 4 | 343 | 6.4 | 6.4 | 0.00 | 0.00 | 0.00 | 54 | 1018.3 |
| 20260505075722 | 4 | 346 | 8.0 | 9.7 | 0.00 | 0.00 | 0.00 | 54 | 1018.4 |
| 20260505075220 | 4 | 340 | 6.4 | 6.4 | 0.00 | 0.00 | 0.00 | 54 | 1018.3 |
| 20260505074717 | 4 | 348 | 4.8 | 4.8 | 0.00 | 0.00 | 0.00 | 54 | 1018.2 |
| 20260505074214 | 4 | 3 | 6.4 | 6.4 | 0.00 | 0.00 | 0.00 | 54 | 1018.2 |
| 20260505073712 | 4 | 11 | 4.8 | 4.8 | 0.00 | 0.00 | 0.00 | 53 | 1018.2 |
| 20260505073210 | 4 | 0 | 6.4 | 9.7 | 0.00 | 0.00 | 0.00 | 53 | 1018.2 |
| 20260505072705 | 4 | 9 | 9.7 | 11.3 | 0.00 | 0.00 | 0.00 | 53 | 1018.0 |
| 20260505072202 | 5 | 340 | 9.7 | 11.3 | 0.00 | 0.00 | 0.00 | 53 | 1018.1 |
| 20260505071657 | 5 | 359 | 12.9 | 14.5 | 0.00 | 0.00 | 0.00 | 53 | 1018.2 |
| 20260505071155 | 5 | 5 | 11.3 | 12.9 | 0.00 | 0.00 | 0.00 | 52 | 1018.2 |
| 20260505070653 | 5 | 7 | 20.9 | 24.1 | 0.00 | 0.00 | 0.00 | 51 | 1018.2 |
| 20260505070149 | 5 | 352 | 12.9 | 16.1 | 0.00 | 0.00 | 0.00 | 50 | 1018.1 |
| 20260505065644 | 5 | 348 | 11.3 | 14.5 | 0.00 | 0.00 | 0.00 | 49 | 1018.3 |
| 20260505065142 | 5 | 27 | 9.7 | 12.9 | 0.00 | 0.00 | 0.00 | 49 | 1018.3 |
| 20260505064638 | 5 | 14 | 9.7 | 12.9 | 0.00 | 0.00 | 0.00 | 48 | 1018.2 |
| 20260505064136 | 5 | 10 | 6.4 | 11.3 | 0.00 | 0.00 | 0.00 | 48 | 1018.1 |
| 20260505063634 | 3 | 18 | 6.4 | 6.4 | 0.00 | 0.00 | 0.00 | 51 | 1018.1 |
| 20260505063130 | 3 | 24 | 6.4 | 6.4 | 0.00 | 0.00 | 0.00 | 52 | 1018.2 |
| 20260505062626 | 2 | 57 | 4.8 | 4.8 | 0.00 | 0.00 | 0.00 | 54 | 1018.0 |
| 20260505062123 | 2 | 5 | 4.8 | 6.4 | 0.00 | 0.00 | 0.00 | 53 | 1018.2 |
| 20260505061620 | 2 | 29 | 3.2 | 9.7 | 0.00 | 0.00 | 0.00 | 52 | 1018.1 |
| 20260505061119 | 3 | 41 | 3.2 | 3.2 | 0.00 | 0.00 | 0.00 | 52 | 1018.0 |
| 20260505060616 | 3 | 57 | 3.2 | 4.8 | 0.00 | 0.00 | 0.00 | 52 | 1018.0 |
| 20260505060113 | 3 | 54 | 6.4 | 6.4 | 0.00 | 0.00 | 0.00 | 52 | 1017.6 |
| 20260505055608 | 2 | 48 | 3.2 | 4.8 | 0.00 | 0.00 | 0.00 | 54 | 1017.8 |
| 20260505055105 | 2 | 271 | 0.0 | 0.0 | 0.00 | 0.00 | 0.00 | 54 | 1017.7 |
| 20260505054602 | 2 | 264 | 0.0 | 0.0 | 0.00 | 0.00 | 0.00 | 53 | 1017.7 |
| 20260505054100 | 3 | 12 | 0.0 | 0.0 | 0.00 | 0.00 | 0.00 | 52 | 1017.7 |
| 20260505053557 | 3 | 8 | 0.0 | 0.0 | 0.00 | 0.00 | 0.00 | 51 | 1017.8 |
| 20260505053053 | 3 | 57 | 3.2 | 3.2 | 0.00 | 0.00 | 0.00 | 51 | 1017.6 |
| 20260505052550 | 3 | 29 | 3.2 | 4.8 | 0.00 | 0.00 | 0.00 | 52 | 1017.6 |
| 20260505052048 | 3 | 85 | 0.0 | 0.0 | 0.00 | 0.00 | 0.00 | 52 | 1017.6 |
| 20260505051544 | 3 | 95 | 3.2 | 3.2 | 0.00 | 0.00 | 0.00 | 52 | 1017.6 |
| 20260505051043 | 3 | 58 | 1.6 | 1.6 | 0.00 | 0.00 | 0.00 | 52 | 1017.6 |
| 20260505050540 | 3 | 66 | 3.2 | 3.2 | 0.00 | 0.00 | 0.00 | 52 | 1017.4 |
| 20260505041508 | 4 | 34 | 6.4 | 9.7 | 0.00 | 0.00 | 0.00 | 49 | 1017.4 |
| 20260505041006 | 4 | 43 | 9.7 | 12.9 | 0.00 | 0.00 | 0.00 | 48 | 1017.4 |
| 20260505040503 | 4 | 27 | 11.3 | 12.9 | 0.00 | 0.00 | 0.00 | 48 | 1017.3 |
| 20260505040000 | 4 | 21 | 8.0 | 11.3 | 0.00 | 0.00 | 0.00 | 48 | 1017.2 |
| 20260505035455 | 4 | 52 | 4.8 | 6.4 | 0.00 | 0.00 | 0.00 | 48 | 1017.1 |
| 20260505034953 | 4 | 63 | 6.4 | 6.4 | 0.00 | 0.00 | 0.00 | 48 | 1017.1 |
| 20260505034449 | 5 | 31 | 6.4 | 9.7 | 0.00 | 0.00 | 0.00 | 47 | 1017.1 |
| 20260505033947 | 5 | 21 | 6.4 | 9.7 | 0.00 | 0.00 | 0.00 | 47 | 1017.1 |
| 20260505033443 | 5 | 21 | 6.4 | 9.7 | 0.00 | 0.00 | 0.00 | 46 | 1017.0 |
| 20260505032942 | 5 | 25 | 8.0 | 12.9 | 0.00 | 0.00 | 0.00 | 46 | 1016.9 |
| 20260505032439 | 5 | 50 | 12.9 | 14.5 | 0.00 | 0.00 | 0.00 | 45 | 1016.5 |
| 20260505031935 | 5 | 65 | 9.7 | 12.9 | 0.00 | 0.00 | 0.00 | 45 | 1016.9 |
| 20260505031432 | 6 | 43 | 6.4 | 9.7 | 0.00 | 0.00 | 0.00 | 44 | 1016.7 |
| 20260505030929 | 6 | 41 | 12.9 | 14.5 | 0.00 | 0.00 | 0.00 | 44 | 1017.0 |
| 20260505030424 | 6 | 33 | 16.1 | 20.9 | 0.00 | 0.00 | 0.00 | 43 | 1016.5 |
| 20260505025920 | 6 | 26 | 12.9 | 16.1 | 0.00 | 0.00 | 0.00 | 43 | 1016.6 |
| 20260505025418 | 6 | 72 | 6.4 | 9.7 | 0.00 | 0.00 | 0.00 | 43 | 1016.4 |
| 20260505024917 | 6 | 43 | 9.7 | 11.3 | 0.00 | 0.00 | 0.00 | 42 | 1016.2 |
| 20260505024414 | 7 | 26 | 12.9 | 17.7 | 0.00 | 0.00 | 0.00 | 41 | 1016.4 |
| 20260505023910 | 7 | 24 | 16.1 | 17.7 | 0.00 | 0.00 | 0.00 | 41 | 1016.2 |
| 20260505023408 | 7 | 18 | 17.7 | 24.1 | 0.00 | 0.00 | 0.00 | 40 | 1016.2 |
| 20260505022905 | 7 | 19 | 19.3 | 25.7 | 0.00 | 0.00 | 0.00 | 39 | 1016.3 |
| 20260505022402 | 8 | 26 | 16.1 | 20.9 | 0.00 | 0.00 | 0.00 | 39 | 1016.1 |
| 20260505021859 | 8 | 66 | 17.7 | 20.9 | 0.00 | 0.00 | 0.00 | 38 | 1015.9 |
| 20260505021355 | 8 | 69 | 17.7 | 22.5 | 0.00 | 0.00 | 0.00 | 36 | 1015.9 |
| 20260505020851 | 9 | 73 | 6.4 | 9.7 | 0.00 | 0.00 | 0.00 | 33 | 1015.7 |
| 20260505020347 | 10 | 16 | 14.5 | 17.7 | 0.00 | 0.00 | 0.00 | 29 | 1015.7 |
| 20260505015844 | 10 | 34 | 17.7 | 20.9 | 0.00 | 0.00 | 0.00 | 29 | 1015.7 |
| 20260505015341 | 10 | 358 | 17.7 | 24.1 | 0.00 | 0.00 | 0.00 | 29 | 1015.7 |
| 20260505014838 | 10 | 345 | 22.5 | 27.4 | 0.00 | 0.00 | 0.00 | 28 | 1016.0 |
| 20260505014335 | 10 | 6 | 17.7 | 24.1 | 0.00 | 0.00 | 0.00 | 27 | 1015.5 |
| 20260505013832 | 10 | 358 | 27.4 | 30.6 | 0.00 | 0.00 | 0.00 | 27 | 1015.5 |
| 20260505013329 | 10 | 32 | 19.3 | 24.1 | 0.00 | 0.00 | 0.00 | 27 | 1015.5 |
| 20260505012827 | 11 | 353 | 14.5 | 20.9 | 0.00 | 0.00 | 0.00 | 26 | 1015.4 |
| 20260505012325 | 11 | 0 | 16.1 | 22.5 | 0.00 | 0.00 | 0.00 | 26 | 1015.2 |
| 20260505011820 | 11 | 0 | 20.9 | 24.1 | 0.00 | 0.00 | 0.00 | 25 | 1015.3 |
| 20260505011318 | 11 | 350 | 11.3 | 14.5 | 0.00 | 0.00 | 0.00 | 24 | 1015.2 |
| 20260505010813 | 11 | 7 | 12.9 | 16.1 | 0.00 | 0.00 | 0.00 | 24 | 1015.5 |
| 20260505010310 | 11 | 12 | 25.7 | 29.0 | 0.00 | 0.00 | 0.00 | 23 | 1015.3 |
| 20260505005806 | 11 | 25 | 17.7 | 17.7 | 0.00 | 0.00 | 0.00 | 23 | 1015.2 |
| 20260505005304 | 11 | 337 | 27.4 | 30.6 | 0.00 | 0.00 | 0.00 | 23 | 1015.1 |
| 20260505004800 | 11 | 15 | 24.1 | 25.7 | 0.00 | 0.00 | 0.00 | 23 | 1015.2 |
| 20260505004256 | 11 | 344 | 17.7 | 24.1 | 0.00 | 0.00 | 0.00 | 24 | 1015.3 |
| 20260505003754 | 12 | 22 | 16.1 | 22.5 | 0.00 | 0.00 | 0.00 | 23 | 1015.2 |
| 20260505003251 | 12 | 326 | 22.5 | 29.0 | 0.00 | 0.00 | 0.00 | 23 | 1015.2 |
| 20260505002747 | 12 | 331 | 20.9 | 22.5 | 0.00 | 0.00 | 0.00 | 22 | 1015.1 |
| 20260505002245 | 12 | 344 | 25.7 | 29.0 | 0.00 | 0.00 | 0.00 | 22 | 1015.2 |
| 20260505001742 | 11 | 358 | 20.9 | 27.4 | 0.00 | 0.00 | 0.00 | 23 | 1015.3 |
| 20260505001240 | 12 | 334 | 25.7 | 30.6 | 0.00 | 0.00 | 0.00 | 23 | 1015.1 |
| 20260505000737 | 12 | 340 | 25.7 | 27.4 | 0.00 | 0.00 | 0.00 | 22 | 1015.3 |
| 20260505000235 | 12 | 358 | 24.1 | 33.8 | 0.00 | 0.00 | 0.00 | 23 | 1015.3 |
| 20260504235731 | 12 | 20 | 27.4 | 33.8 | 0.00 | 0.00 | 0.00 | 22 | 1015.2 |
| 20260504235227 | 12 | 299 | 24.1 | 29.0 | 0.00 | 0.00 | 0.00 | 23 | 1015.0 |
| 20260504234725 | 12 | 4 | 17.7 | 22.5 | 0.00 | 0.00 | 0.00 | 24 | 1015.1 |
| 20260504234222 | 12 | 346 | 24.1 | 27.4 | 0.00 | 0.00 | 0.00 | 24 | 1015.1 |
| 20260504233718 | 12 | 357 | 27.4 | 35.4 | 0.00 | 0.00 | 0.00 | 24 | 1014.6 |
| 20260504233214 | 12 | 328 | 25.7 | 35.4 | 0.00 | 0.00 | 0.00 | 25 | 1015.2 |
| 20260504232711 | 12 | 350 | 30.6 | 38.6 | 0.00 | 0.00 | 0.00 | 25 | 1015.1 |
| 20260504232208 | 12 | 344 | 24.1 | 29.0 | 0.00 | 0.00 | 0.00 | 25 | 1015.3 |
| 20260504231705 | 12 | 5 | 16.1 | 20.9 | 0.00 | 0.00 | 0.00 | 26 | 1015.1 |
| 20260504231201 | 12 | 348 | 22.5 | 30.6 | 0.00 | 0.00 | 0.00 | 26 | 1015.0 |
| 20260504230657 | 12 | 358 | 35.4 | 43.5 | 0.00 | 0.00 | 0.00 | 24 | 1015.0 |
| 20260504230156 | 12 | 357 | 25.7 | 30.6 | 0.00 | 0.00 | 0.00 | 25 | 1015.2 |
| 20260504225654 | 12 | 351 | 30.6 | 35.4 | 0.00 | 0.00 | 0.00 | 25 | 1015.1 |
| 20260504225150 | 12 | 349 | 30.6 | 35.4 | 0.00 | 0.00 | 0.00 | 25 | 1015.1 |
| 20260504224647 | 13 | 11 | 24.1 | 30.6 | 0.00 | 0.00 | 0.00 | 24 | 1015.1 |
| 20260504224144 | 12 | 339 | 27.4 | 35.4 | 0.00 | 0.00 | 0.00 | 25 | 1015.1 |
| 20260504223641 | 12 | 326 | 25.7 | 29.0 | 0.00 | 0.00 | 0.00 | 26 | 1015.3 |
| 20260504223136 | 12 | 328 | 30.6 | 37.0 | 0.00 | 0.00 | 0.00 | 27 | 1015.1 |
| 20260504222634 | 12 | 31 | 16.1 | 24.1 | 0.00 | 0.00 | 0.00 | 27 | 1015.1 |
| 20260504222131 | 12 | 345 | 19.3 | 24.1 | 0.00 | 0.00 | 0.00 | 29 | 1015.4 |
| 20260504221628 | 12 | 20 | 24.1 | 33.8 | 0.00 | 0.00 | 0.00 | 29 | 1015.0 |
| 20260504221125 | 12 | 327 | 22.5 | 25.7 | 0.00 | 0.00 | 0.00 | 29 | 1015.2 |
| 20260504220621 | 12 | 331 | 33.8 | 38.6 | 0.00 | 0.00 | 0.00 | 29 | 1015.2 |
| 20260504220119 | 12 | 335 | 32.2 | 46.7 | 0.00 | 0.00 | 0.00 | 30 | 1015.2 |
| 20260504215615 | 12 | 343 | 20.9 | 25.7 | 0.00 | 0.00 | 0.00 | 30 | 1015.3 |
| 20260504215113 | 12 | 354 | 27.4 | 30.6 | 0.00 | 0.00 | 0.00 | 31 | 1015.4 |
| 20260504214608 | 11 | 330 | 32.2 | 38.6 | 0.00 | 0.00 | 0.00 | 31 | 1015.2 |
| 20260504214105 | 10 | 331 | 17.7 | 24.1 | 0.00 | 0.00 | 0.00 | 33 | 1015.4 |
| 20260504213601 | 11 | 17 | 19.3 | 22.5 | 0.00 | 0.00 | 0.00 | 32 | 1015.6 |
| 20260504213058 | 10 | 21 | 22.5 | 25.7 | 0.00 | 0.00 | 0.00 | 32 | 1015.5 |
| 20260504212554 | 11 | 336 | 20.9 | 27.4 | 0.00 | 0.00 | 0.00 | 31 | 1015.6 |
| 20260504212052 | 11 | 359 | 33.8 | 38.6 | 0.00 | 0.00 | 0.00 | 31 | 1015.7 |
| 20260504211548 | 11 | 22 | 19.3 | 25.7 | 0.00 | 0.00 | 0.00 | 31 | 1015.9 |
| 20260504211045 | 11 | 357 | 24.1 | 27.4 | 0.00 | 0.00 | 0.00 | 32 | 1015.9 |
| 20260504210542 | 11 | 340 | 29.0 | 33.8 | 0.00 | 0.00 | 0.00 | 31 | 1016.1 |
| 20260504210039 | 11 | 8 | 25.7 | 29.0 | 0.00 | 0.00 | 0.00 | 31 | 1015.7 |
| 20260504205537 | 12 | 340 | 27.4 | 35.4 | 0.00 | 0.00 | 0.00 | 31 | 1015.9 |
| 20260504205035 | 11 | 336 | 24.1 | 27.4 | 0.00 | 0.00 | 0.00 | 33 | 1015.9 |
| 20260504204532 | 11 | 343 | 25.7 | 38.6 | 0.00 | 0.00 | 0.00 | 32 | 1015.9 |
| 20260504204032 | 11 | 342 | 19.3 | 22.5 | 0.00 | 0.00 | 0.00 | 33 | 1016.0 |
| 20260504203529 | 11 | 7 | 22.5 | 29.0 | 0.00 | 0.00 | 0.00 | 34 | 1015.9 |
| 20260504203026 | 11 | 0 | 32.2 | 37.0 | 0.00 | 0.00 | 0.00 | 35 | 1015.9 |
| 20260504202521 | 12 | 358 | 20.9 | 27.4 | 0.00 | 0.00 | 0.00 | 34 | 1015.9 |
| 20260504202019 | 11 | 344 | 20.9 | 25.7 | 0.00 | 0.00 | 0.00 | 35 | 1015.7 |
| 20260504201516 | 11 | 336 | 22.5 | 27.4 | 0.00 | 0.00 | 0.00 | 34 | 1015.5 |
| 20260504201014 | 12 | 333 | 27.4 | 38.6 | 0.00 | 0.00 | 0.00 | 32 | 1015.5 |
| 20260504200510 | 12 | 336 | 19.3 | 24.1 | 0.00 | 0.00 | 0.00 | 34 | 1015.6 |
| 20260504200007 | 11 | 3 | 14.5 | 17.7 | 0.00 | 0.00 | 0.00 | 37 | 1015.4 |
| 20260504195503 | 12 | 324 | 17.7 | 17.7 | 0.00 | 0.00 | 0.00 | 33 | 1015.4 |
| 20260504194959 | 11 | 357 | 25.7 | 30.6 | 0.00 | 0.00 | 0.00 | 35 | 1015.6 |
| 20260504194455 | 11 | 341 | 32.2 | 35.4 | 0.00 | 0.00 | 0.00 | 34 | 1015.6 |
| 20260504193951 | 12 | 342 | 29.0 | 35.4 | 0.00 | 0.00 | 0.00 | 34 | 1015.6 |
| 20260504193449 | 11 | 319 | 30.6 | 35.4 | 0.00 | 0.00 | 0.00 | 33 | 1015.5 |
| 20260504192947 | 12 | 340 | 24.1 | 27.4 | 0.00 | 0.00 | 0.00 | 34 | 1015.6 |
| 20260504192444 | 12 | 344 | 29.0 | 33.8 | 0.00 | 0.00 | 0.00 | 33 | 1015.5 |
| 20260504191943 | 12 | 350 | 24.1 | 27.4 | 0.00 | 0.00 | 0.00 | 33 | 1015.6 |
| 20260504191441 | 12 | 0 | 20.9 | 25.7 | 0.00 | 0.00 | 0.00 | 33 | 1015.5 |
| 20260504190935 | 13 | 340 | 27.4 | 33.8 | 0.00 | 0.00 | 0.00 | 33 | 1015.6 |
| 20260504190431 | 13 | 327 | 17.7 | 22.5 | 0.00 | 0.00 | 0.00 | 34 | 1015.7 |
| 20260504185928 | 12 | 346 | 24.1 | 27.4 | 0.00 | 0.00 | 0.00 | 33 | 1015.6 |
| 20260504185425 | 12 | 327 | 38.6 | 41.8 | 0.00 | 0.00 | 0.00 | 32 | 1015.4 |
| 20260504184921 | 12 | 14 | 29.0 | 37.0 | 0.00 | 0.00 | 0.00 | 33 | 1015.4 |
| 20260504184417 | 12 | 348 | 32.2 | 37.0 | 0.00 | 0.00 | 0.00 | 33 | 1015.5 |
| 20260504183913 | 12 | 331 | 27.4 | 29.0 | 0.00 | 0.00 | 0.00 | 34 | 1015.4 |
| 20260504183411 | 13 | 326 | 35.4 | 41.8 | 0.00 | 0.00 | 0.00 | 33 | 1015.3 |
| 20260504182908 | 13 | 331 | 40.2 | 48.3 | 0.00 | 0.00 | 0.00 | 33 | 1015.6 |
| 20260504182405 | 12 | 356 | 20.9 | 33.8 | 0.00 | 0.00 | 0.00 | 35 | 1015.5 |
| 20260504181902 | 12 | 235 | 22.5 | 29.0 | 0.00 | 0.00 | 0.00 | 34 | 1015.4 |
| 20260504181359 | 12 | 343 | 27.4 | 37.0 | 0.00 | 0.00 | 0.00 | 35 | 1015.4 |
| 20260504180858 | 11 | 326 | 29.0 | 37.0 | 0.00 | 0.00 | 0.00 | 35 | 1015.7 |
| 20260504180356 | 12 | 5 | 22.5 | 33.8 | 0.00 | 0.00 | 0.00 | 35 | 1015.6 |
| 20260504175854 | 12 | 4 | 22.5 | 27.4 | 0.00 | 0.00 | 0.00 | 36 | 1015.6 |
| 20260504175350 | 12 | 327 | 25.7 | 29.0 | 0.00 | 0.00 | 0.00 | 35 | 1015.5 |
| 20260504174849 | 11 | 337 | 22.5 | 25.7 | 0.00 | 0.00 | 0.00 | 36 | 1015.7 |
| 20260504174346 | 11 | 351 | 20.9 | 25.7 | 0.00 | 0.00 | 0.00 | 37 | 1015.9 |
| 20260504173843 | 11 | 357 | 24.1 | 27.4 | 0.00 | 0.00 | 0.00 | 38 | 1015.6 |
| 20260504173339 | 12 | 353 | 19.3 | 24.1 | 0.00 | 0.00 | 0.00 | 36 | 1015.9 |
| 20260504172836 | 11 | 343 | 24.1 | 25.7 | 0.00 | 0.00 | 0.00 | 38 | 1015.9 |
| 20260504172333 | 11 | 328 | 19.3 | 27.4 | 0.00 | 0.00 | 0.00 | 38 | 1015.9 |
| 20260504171829 | 11 | 345 | 30.6 | 30.6 | 0.00 | 0.00 | 0.00 | 38 | 1016.0 |
| 20260504171326 | 11 | 328 | 19.3 | 24.1 | 0.00 | 0.00 | 0.00 | 39 | 1015.7 |
| 20260504170824 | 12 | 0 | 22.5 | 27.4 | 0.00 | 0.00 | 0.00 | 40 | 1015.9 |
| 20260504170320 | 11 | 343 | 17.7 | 20.9 | 0.00 | 0.00 | 0.00 | 42 | 1015.6 |
| 20260504160238 | 10 | 319 | 9.7 | 12.9 | 0.00 | 0.00 | 0.00 | 49 | 1015.6 |
| 20260504150704 | 10 | 316 | 9.7 | 12.9 | 0.00 | 0.00 | 0.00 | 51 | 1016.0 |
| 20260504150201 | 10 | 315 | 12.9 | 16.1 | 0.00 | 0.00 | 0.00 | 51 | 1016.1 |